Portada
METAR-TAF:

METAR-TAF

Aeroports :

Dimapur, Índia

latitud: 25-53-02N, longitud: 093-46-16E, altitud: 148 m

Observació

L'informe es va fer fa 27 minuts, a les 06:00 UTC
Vent 6 kt del Est
Temperatura 22°C
Humitat 57%
Pressió 1015 hPa
Visibilitat: 5000 m
Escasses núvols a una alçada de 2000 ft
Núvols disperses a una alçada de 10000 ft
calitja

METAR: VEMR 110600Z 09006KT 5000 HZ FEW020 SCT100 22/13 Q1015

Hora: 11:57 (06:27 UTC)


TAF: manca

Observacions i pronòstics meteorològics de més de 4000 aeroports (METAR i TAF).

Les estacions disponibles són els punts grocs i vermells al mapa.

Posi el ratolí al punt desitjat per veure el nom de l'estació.

Feu clic per veure les observacions i els pronòstics meteorològics.

Per canviar el mapa: feu clic els botons verds amb una creu de color negre per apropar; al botó verd amb un guió per allunyar la imatge; o en les fletxes verdes per a mapes adjacents.


METAR-TAF: